Regional Weather Roundup
Issued by NWS

Home | Current Version | Previous Version | Graphics & Text | Print | Product List | Glossary On
Versions: 1 2 3 4 5 6 7 8 9 10 11 12 13 14 15 16 17 18 19 20 21 22 23 24 25 26 27 28 29 30 31 32 33 34 35 36 37 38 39 40 41 42 43 44 45 46 47 48 49 50
000
ASUS43 KLOT 271808
RWRIL

ILLINOIS REGIONAL WEATHER ROUNDUP
NATIONAL WEATHER SERVICE CHICAGO/ROMEOVILLE IL
100 PM CDT MON MAR 27 2017

NOTE: "FAIR" INDICATES FEW OR NO CLOUDS BELOW 12,000 FEET WITH NO
SIGNIFICANT WEATHER AND/OR OBSTRUCTIONS TO VISIBILITY.

* THESE STATIONS ARE NOT UNDER NWS QUALITY CONTROL. THEY ALSO MAY NOT
  REPORT WEATHER SUCH AS PRECIPITATION OR FOG.

ILZ001-002-007-009-015-016-024-271900-
NORTHWEST ILLINOIS

CITY           SKY/WX    TMP DP  RH WIND       PRES   REMARKS
MOLINE         CLOUDY    52  45  77 E6        29.92S
6HR MIN TEMP:  48; 6HR MAX TEMP:  52;

STERLING*      CLOUDY    50  48  93 E7        29.93F
SAVANNA*       CLOUDY    49  46  86 SE3       29.93F
$$

ILZ003-004-008-010-011-017-018-271900-
NORTH CENTRAL ILLINOIS

CITY           SKY/WX    TMP DP  RH WIND       PRES   REMARKS
ROCKFORD       CLOUDY    50  44  80 S5        29.95F
6HR MIN TEMP:  46; 6HR MAX TEMP:  50;

FREEPORT*      CLOUDY    47  45  91 SE3       29.95F
ROCHELLE*      CLOUDY    49  46  88 CALM      29.93F
DE KALB*       CLOUDY    51  47  88 E6        29.94F
PERU*          CLOUDY    50  46  87 CALM      29.93F
$$

ILZ005-006-012>014-019>023-271900-
NORTHEAST ILLINOIS

CITY           SKY/WX    TMP DP  RH WIND       PRES   REMARKS
CHICAGO-OHARE  CLOUDY    48  44  86 E7        29.93F FOG
6HR MIN TEMP:  47; 6HR MAX TEMP:  49; 6HR PCP: TRACE;

CHICAGO-MIDWAY CLOUDY    47  44  90 E8        29.95F
6HR MIN TEMP:  46; 6HR MAX TEMP:  50; 6HR PCP: TRACE;

AURORA         CLOUDY    52  48  86 NE3       29.93F FOG
6HR MIN TEMP:  48; 6HR MAX TEMP:  53;

LANSING*       CLOUDY    47  46  96 N6        29.94F FOG
JOLIET*        CLOUDY    53  50  88 SE5       29.93F
WAUKEGAN       CLOUDY    44  42  93 E7        29.94F
6HR MIN TEMP:  43; 6HR MAX TEMP:  46;

DUPAGE AIRPORT FOG       49  49 100 E6        29.92F VSB 1
6HR MIN TEMP:  47; 6HR MAX TEMP:  49;

KANKAKEE*      LGT RAIN  56  49  78 CALM      29.93F
WHEELING       CLOUDY    47  43  86 E5        29.95F
6HR MIN TEMP:  46; 6HR MAX TEMP:  48;

MORRIS*        CLOUDY    53  48  84 CALM      29.92F
ROMEOVILLE*    CLOUDY    52  50  93 S3        29.93F
NORTHERLY ISL    N/A     41  40  96 NE5         N/A
$$

LMZ740>746-271900-
SOUTHERN LAKE MICHIGAN

STATION/POSITION SKY/WX   TEMP    WIND        PRES    VSBY  WAVE
                          AIR SEA DIR/SP/G                  HT/PER
                          (F)     (DEG/KT/KT) (MB)    (MI)  (FT/S)
HARRISON CRIB              40      80/  5/  5   N/A
BURNHAM HARBOR             41      60/  4/  4   N/A
CALUMET HARBOR             40      60/  6/  7 1013.8F
BURNS HARBOR               41      60/  7/  8 1014.6F
MICHIGAN CITY              40      30/  5/  6   N/A
$$

ILZ025>027-034>036-040-047-049-050-058-095>099-271900-
WEST-CENTRAL ILLINOIS

CITY           SKY/WX    TMP DP  RH WIND       PRES   REMARKS
QUINCY         CLOUDY    51  49  92 NE14      29.88F
GALESBURG*     LGT RAIN  51  49  91 E6        29.91F
MACOMB*        LGT RAIN  50  50  99 E6        29.93F
JACKSONVILLE*  LGT RAIN  52  51  97 NE10      29.88F
PITTSFIELD*    LGT RAIN  52  51  97 NE13      29.88F
$$

ILZ028>032-037-038-041>044-048-051>054-059>061-271900-
CENTRAL ILLINOIS

CITY           SKY/WX    TMP DP  RH WIND       PRES   REMARKS
PONTIAC        LGT RAIN  53  52  97 SE5       29.93F
BLOOMINGTON    LGT RAIN  52  51  97 NE6       29.92F
DECATUR        LGT RAIN  59  51  75 SE8       29.89S
PEORIA         LGT RAIN  51  50  96 NE3       29.91F FOG
6HR MIN TEMP:  48; 6HR MAX TEMP:  51; 6HR PCP:  0.14;

LACON*         DRIZZLE   51  48  92 CALM      29.92F
LINCOLN*       LGT RAIN  54  53  96 NE6       29.91F
SPRINGFIELD    LGT RAIN  53  51  93 NE10      29.88F FOG
6HR MIN TEMP:  48; 6HR MAX TEMP:  53; 6HR PCP:  0.16;

TAYLORVILLE    DRIZZLE   54  54 100 N12       29.86F
$$

ILZ033-039-045-046-055>057-062-063-271900-
EAST-CENTRAL ILLINOIS

CITY           SKY/WX    TMP DP  RH WIND       PRES   REMARKS
CHAMPAIGN      LGT RAIN  61  47  59 E9        29.89F
RANTOUL*       CLOUDY    58  53  82 E6        29.89F
MATTOON        LGT RAIN  55  53  93 E8        29.86F
$$

ILZ079-100>102-271900-
SOUTHWEST ILLINOIS

CITY           SKY/WX    TMP DP  RH WIND       PRES   REMARKS
ALTON          DRIZZLE   52  52 100 N12       29.85S
BELLEVILLE     CLOUDY    58  58 100 CALM      29.81F
CAHOKIA*       CLOUDY    55  52  89 N8        29.83F FOG
SPARTA*        CLOUDY    60  55  84 SW9       29.84F
$$

ILZ064>066-069>071-074>076-080>082-084>086-088>090-092>094-271900-
SOUTH-CENTRAL ILLINOIS

CITY           SKY/WX    TMP DP  RH WIND       PRES   REMARKS
CARBONDALE     LGT RAIN  62  56  80 SW13      29.84R
6HR MIN TEMP:  52; 6HR MAX TEMP:  63; 6HR PCP:  0.19;

CAIRO*         CLOUDY    58  57  94 S6        29.87F
EFFINGHAM*     CLOUDY    55  55 100 E5        29.87F
MARION         CLOUDY    64  55  72 S12       29.85F
MT. VERNON     PTSUNNY   67  57  70 SW16      29.83F
CENTRALIA*     CLOUDY    63  58  83 SW9       29.82F
SALEM*         CLOUDY    60  56  88 SE5       29.84F
METROPOLIS*    TSTM      60  57  91 SW6       29.90S
$$

ILZ067-068-072-073-078-083-087-091-271900-
SOUTHEAST ILLINOIS

CITY           SKY/WX    TMP DP  RH WIND       PRES   REMARKS
LAWRENCEVILLE  CLOUDY    59  55  87 SE6       29.88R
FLORA*         CLOUDY    60  57  89 SE7       29.86F
FAIRFIELD*     LGT RAIN  65  59  81 S6        29.84F
HARRISBURG*    CLOUDY    67  55  66 S16       29.86F
ROBINSON*      CLOUDY    57  53  87 E5        29.89S
CARMI*         PTSUNNY   65  59  79 SW8       29.85F
$$

ABBREVIATIONS USED IN REMARKS
   TC - TEMPERATURE IN CELSIUS
  WCI - WIND CHILL INDEX
   HX - HEAT INDEX
  VSB - VISIBILITY
$$





USA.gov is the U.S. government's official web portal to all federal, state and local government web resources and services.